Wind_Speed
35 35 35 35 36 36 37 37 38 40 42 43 43 45 47 49 50 50 50 50 49 49 48 49 49 50 51 52 53 53 55 55 56 56 57 56 56 57 59 59 59 58 58
34 33 33 33 33 34 35 35 36 37 38 39 41 42 44 45 45 45 44 44 44 43 42 42 43 44 45 46 48 49 49 50 51 53 54 55 56 57 57 58 59 60 59
31 31 31 31 32 32 32 32 33 34 35 36 38 39 40 41 41 39 37 37 37 37 36 36 36 38 39 40 42 43 44 46 48 49 51 54 54 55 56 57 57 58 58
29 29 29 29 29 29 29 30 31 32 32 34 35 36 37 37 36 35 33 32 31 30 30 31 32 33 34 35 36 38 39 41 43 46 48 50 51 53 54 55 56 57 57
27 27 27 27 27 27 27 28 29 30 30 31 32 33 33 32 31 30 29 28 26 26 25 26 27 29 29 31 32 33 36 38 41 43 46 49 50 51 52 53 55 56 56
25 25 25 25 25 25 26 27 28 28 29 29 30 30 30 29 28 27 26 25 23 23 23 23 24 24 26 27 30 32 34 37 39 42 45 46 48 49 50 52 54 55 55
23 22 23 23 24 25 25 26 26 27 28 28 28 27 26 26 25 24 23 21 20 20 19 20 21 23 24 25 28 30 33 36 38 41 43 44 46 47 50 51 53 54 54
22 22 22 23 23 24 24 25 25 26 26 27 26 25 24 23 22 22 20 19 19 19 20 20 21 22 24 26 29 31 33 36 38 41 42 44 46 48 49 51 52 53 54
21 22 22 22 23 23 24 24 24 25 25 25 24 24 23 22 21 21 20 20 20 20 20 21 23 24 26 28 30 32 35 37 39 42 44 46 48 49 50 52 52 52 52
21 21 21 22 22 23 23 23 23 23 23 23 23 22 22 22 21 21 21 21 22 22 23 25 27 28 30 31 33 35 38 40 42 44 46 48 49 50 51 51 51 51 51
20 21 21 21 21 21 22 22 22 22 22 22 22 22 22 22 22 22 23 23 24 25 26 28 29 31 33 35 37 39 40 42 44 46 47 49 50 51 52 52 51 50 49
19 20 20 20 20 20 21 21 21 21 21 21 21 21 22 22 23 24 25 26 27 28 29 31 32 34 35 37 39 41 43 45 46 48 49 50 51 52 51 50 49 48 46
19 19 19 19 19 20 20 20 21 21 21 21 22 22 23 24 25 26 27 28 29 30 31 33 35 36 38 40 42 43 45 46 48 49 49 50 50 49 48 46 44 42 41
18 18 19 19 20 20 20 21 21 21 22 22 23 24 25 25 26 28 29 30 31 32 34 36 37 39 40 42 44 45 47 48 48 48 48 48 47 45 42 40 39 38 37
19 19 19 20 20 21 21 22 22 23 23 24 25 25 26 27 28 29 31 32 33 34 36 38 40 41 42 44 45 47 48 48 48 47 47 46 44 42 40 38 38 37 35
19 20 20 21 21 22 22 23 24 24 25 25 26 27 28 29 30 31 32 33 35 36 38 40 41 42 43 45 47 48 48 47 47 47 45 43 41 40 38 37 36 34 33
20 21 22 22 23 23 24 25 25 26 26 27 28 29 30 31 32 33 34 35 37 38 40 41 42 44 45 47 48 48 48 47 46 45 43 41 40 38 37 35 34 32 31
22 22 23 24 24 25 25 26 26 27 28 29 29 30 31 32 33 35 36 37 39 40 41 42 44 45 47 48 49 48 47 46 45 44 42 40 39 37 35 34 32 31 30
23 24 24 25 25 26 27 27 27 28 29 30 30 31 32 34 35 36 37 39 40 41 42 44 45 46 48 49 49 47 46 45 44 43 41 40 38 37 35 33 32 31 31
24 25 25 26 26 27 27 28 29 29 30 31 32 33 34 35 36 37 39 40 41 42 44 45 46 47 49 49 48 47 46 45 43 42 40 39 37 36 34 33 32 31 30
26 26 27 27 27 28 28 29 30 31 32 32 33 34 35 36 37 39 40 41 42 43 45 46 47 48 49 48 47 46 45 44 43 41 39 38 36 35 33 32 31 31 30
28 28 28 28 29 29 30 31 32 32 33 34 34 35 36 38 39 40 41 43 43 44 45 47 47 48 48 48 47 46 45 44 42 40 39 38 36 34 33 32 31 31 31
29 29 29 30 30 31 31 32 32 33 34 34 35 36 38 39 40 41 42 43 44 45 46 47 47 47 48 48 47 45 45 43 42 40 39 37 35 33 32 31 31 31 31
30 30 30 31 31 31 32 32 33 33 34 35 37 38 39 40 41 42 43 43 44 46 46 47 47 47 48 47 47 46 45 43 41 39 37 35 33 32 31 31 31 31 31
30 30 31 31 31 32 32 32 33 34 35 36 38 39 40 41 42 43 43 44 45 46 46 47 47 47 48 47 46 45 44 42 40 38 35 33 31 30 30 30 30 30 30
30 30 31 31 31 32 32 33 34 35 36 38 39 40 40 41 42 43 43 44 45 46 46 47 47 47 47 47 46 44 43 40 38 36 34 32 30 29 29 29 29 29 29
Wind_Direction
270 272 274 277 279 282 285 287 290 292 293 295 296 296 296 296 295 293 290 287 283 281 279 276 274 272 270 267 265 265 265 266 269 269 272 274 276 278 280 281 283 284 285
271 273 276 278 281 285 288 291 292 294 296 299 300 300 300 300 299 297 294 290 286 282 280 276 274 272 269 268 267 266 266 268 269 270 272 275 277 280 281 282 283 285 286
272 274 276 280 284 287 290 292 294 297 300 303 304 304 304 304 303 301 299 296 290 285 281 276 275 274 271 269 268 267 267 269 270 271 273 276 278 280 282 283 286 286 287
273 274 277 282 285 288 290 293 297 300 303 306 308 308 309 308 306 303 302 299 296 290 285 281 278 276 273 270 269 269 270 271 273 274 276 279 280 282 283 285 286 287 288
273 275 278 282 284 287 291 296 299 302 306 309 310 311 312 312 310 307 306 303 299 296 293 287 281 278 276 273 273 273 273 275 277 278 279 282 283 284 285 286 288 290 290
273 275 278 280 284 288 293 299 301 303 306 310 313 315 315 314 314 312 309 305 303 300 297 293 287 283 283 280 279 278 279 280 281 281 283 285 286 287 288 290 291 291 291
272 275 278 281 285 290 295 299 302 304 307 310 311 314 317 317 318 317 316 314 311 308 305 299 295 293 292 289 286 285 285 285 286 287 289 289 290 291 292 293 293 292 292
270 275 279 283 286 291 295 299 302 305 308 311 313 314 316 319 321 322 320 317 313 312 308 304 303 301 299 296 293 293 293 292 292 292 292 293 294 295 295 295 294 294 293
270 276 281 283 286 291 295 299 302 305 308 311 313 314 315 317 318 319 320 318 315 314 312 309 307 306 304 303 301 299 298 297 296 297 297 297 297 296 296 296 296 295 295
273 279 282 284 287 291 295 298 302 305 309 311 314 315 315 315 316 318 318 317 315 313 312 311 310 309 307 306 304 303 302 301 301 300 299 299 299 299 299 298 297 296 296
276 280 283 285 288 292 295 298 302 306 308 311 312 314 315 315 316 317 318 317 317 316 315 314 312 311 310 309 308 307 306 305 304 303 303 302 302 302 301 300 298 297 296
279 281 283 286 289 292 296 298 302 305 307 310 311 312 313 314 315 316 316 315 315 315 315 315 314 313 312 311 311 310 309 308 307 306 305 305 304 303 302 300 298 298 297
280 283 284 287 290 294 296 299 302 305 307 309 311 312 312 313 314 314 314 314 315 315 316 315 315 314 314 313 313 312 312 310 309 308 308 307 306 305 303 301 301 300 298
281 283 285 288 291 295 297 299 302 304 306 308 310 311 312 313 313 314 314 314 315 315 316 316 316 316 315 315 315 315 314 312 311 310 310 309 308 307 305 304 302 301 300
281 283 285 288 292 294 297 299 302 304 306 308 309 310 311 311 313 313 314 315 316 316 317 317 317 317 317 316 316 316 315 314 313 312 311 311 310 308 306 304 303 301 300
281 283 284 287 290 294 297 299 302 304 305 307 308 309 310 311 313 314 315 316 317 317 318 318 318 318 318 318 317 317 316 315 314 314 313 312 311 309 306 305 304 302 301
281 283 285 288 290 292 296 298 301 303 305 306 308 309 310 312 313 315 316 316 317 318 318 318 318 318 318 318 318 318 317 316 316 315 313 312 311 310 307 305 304 303 302
282 284 286 287 289 292 294 297 300 302 304 306 308 309 311 312 314 315 316 317 317 318 318 319 319 319 319 319 319 319 318 317 316 315 314 312 311 310 308 306 304 303 303
283 285 287 288 290 292 294 297 299 301 303 305 307 309 311 312 314 315 316 317 318 318 318 319 320 320 320 320 320 319 318 318 317 315 314 313 311 309 307 305 304 302 302
283 285 287 289 291 292 294 296 298 301 303 305 306 308 310 312 313 315 316 317 318 318 319 319 320 320 321 321 321 320 319 318 317 316 314 313 311 309 306 305 303 302 302
283 285 287 288 290 292 294 296 298 301 302 304 306 308 309 311 313 315 316 317 318 318 319 320 320 321 322 322 321 320 319 319 318 316 314 313 311 309 307 305 303 302 301
282 284 286 287 289 291 293 296 298 300 302 304 306 307 309 311 313 314 316 317 317 318 319 320 320 321 322 323 322 320 319 319 317 316 314 313 311 309 307 306 304 303 303
281 283 284 286 288 290 292 295 297 299 301 304 306 307 309 311 312 314 315 316 317 318 319 320 321 321 322 323 322 321 320 319 317 315 314 312 310 309 308 307 305 305 305
280 282 284 285 288 289 291 293 296 299 302 304 306 307 309 311 312 314 315 316 318 319 320 320 321 322 322 323 322 321 320 319 318 316 314 312 311 309 308 308 307 307 307
280 282 285 287 288 289 290 293 296 299 301 304 305 307 308 310 311 313 315 316 318 319 320 320 321 322 323 323 323 322 321 320 319 317 315 314 312 310 310 310 309 309 308
281 283 285 287 288 289 291 293 296 299 301 304 305 307 309 310 312 313 314 316 318 319 320 321 321 322 323 323 323 322 321 320 320 319 317 315 314 312 312 312 311 310 309
Height
5720 5720 5720 5719 5717 5716 5714 5711 5708 5705 5701 5697 5692 5687 5681 5675 5669 5663 5658 5653 5649 5646 5644 5643 5642 5642 5642 5643 5644 5645 5647 5648 5648 5649 5649 5648 5647 5646 5644 5642 5640 5638 5635
5712 5711 5710 5709 5708 5706 5704 5701 5698 5695 5691 5686 5681 5675 5669 5663 5656 5650 5644 5640 5636 5633 5631 5630 5630 5630 5630 5630 5631 5633 5634 5635 5636 5636 5636 5635 5634 5632 5630 5627 5625 5623 5620
5703 5703 5702 5701 5699 5697 5695 5692 5689 5685 5681 5676 5671 5665 5658 5652 5645 5639 5634 5630 5626 5623 5621 5620 5620 5619 5619 5620 5621 5622 5623 5623 5624 5624 5623 5622 5620 5618 5616 5614 5610 5607 5604
5695 5694 5694 5692 5691 5689 5686 5684 5680 5676 5672 5667 5662 5656 5650 5643 5637 5631 5626 5622 5618 5615 5614 5612 5612 5611 5611 5611 5612 5612 5613 5613 5613 5612 5611 5610 5608 5605 5603 5600 5596 5592 5588
5687 5687 5686 5685 5683 5681 5679 5676 5672 5668 5664 5659 5654 5648 5642 5636 5630 5625 5620 5616 5612 5609 5607 5606 5605 5605 5604 5604 5604 5604 5604 5603 5602 5601 5600 5598 5595 5592 5589 5585 5581 5577 5572
5680 5680 5679 5678 5676 5674 5672 5668 5665 5661 5657 5652 5647 5642 5636 5630 5625 5620 5615 5611 5608 5605 5603 5601 5600 5599 5598 5598 5597 5596 5595 5594 5593 5591 5589 5585 5582 5578 5575 5570 5566 5562 5556
5673 5673 5672 5671 5669 5667 5665 5662 5658 5654 5650 5646 5641 5636 5631 5625 5620 5616 5611 5608 5604 5601 5599 5597 5596 5594 5593 5592 5590 5589 5587 5585 5583 5580 5577 5573 5569 5565 5561 5556 5551 5546 5541
5667 5667 5666 5664 5663 5661 5658 5655 5652 5648 5644 5640 5635 5630 5626 5621 5617 5612 5608 5605 5602 5599 5596 5594 5592 5590 5588 5586 5584 5581 5579 5576 5573 5570 5566 5561 5557 5552 5547 5542 5536 5531 5525
5661 5660 5659 5658 5656 5654 5652 5649 5646 5642 5638 5634 5630 5626 5621 5617 5613 5609 5605 5602 5599 5596 5593 5590 5588 5585 5582 5579 5577 5574 5570 5567 5562 5558 5553 5548 5543 5538 5532 5527 5521 5516 5510
5655 5654 5653 5652 5650 5648 5646 5643 5640 5637 5633 5629 5625 5621 5617 5613 5609 5606 5602 5599 5595 5592 5589 5586 5582 5579 5575 5572 5568 5565 5560 5556 5551 5546 5541 5535 5529 5523 5517 5511 5505 5500 5494
5649 5648 5647 5646 5644 5642 5640 5637 5634 5631 5628 5624 5621 5617 5613 5609 5605 5602 5598 5594 5591 5587 5584 5580 5576 5572 5568 5564 5559 5555 5550 5544 5539 5533 5527 5521 5514 5508 5502 5495 5490 5484 5479
5643 5642 5641 5640 5638 5636 5634 5632 5629 5626 5623 5619 5616 5612 5609 5605 5601 5597 5593 5589 5586 5582 5578 5573 5569 5564 5559 5555 5549 5544 5538 5532 5526 5520 5513 5507 5500 5493 5486 5480 5474 5469 5463
5637 5636 5635 5634 5633 5631 5629 5626 5624 5621 5618 5614 5611 5607 5604 5600 5596 5592 5588 5584 5579 5575 5571 5566 5561 5556 5551 5545 5539 5533 5527 5520 5513 5507 5500 5493 5485 5478 5472 5465 5460 5455 5450
5632 5631 5630 5629 5627 5625 5623 5621 5618 5615 5612 5609 5605 5602 5598 5594 5590 5586 5582 5577 5573 5568 5563 5558 5553 5547 5541 5535 5528 5522 5515 5508 5501 5494 5486 5479 5472 5465 5459 5453 5448 5443 5439
5626 5625 5624 5623 5621 5620 5617 5615 5612 5610 5606 5603 5600 5596 5592 5588 5584 5580 5575 5571 5566 5561 5555 5550 5544 5538 5531 5525 5518 5511 5503 5496 5489 5481 5474 5467 5460 5453 5447 5442 5437 5433 5429
5620 5620 5618 5617 5616 5614 5612 5609 5606 5603 5600 5597 5593 5590 5586 5582 5577 5573 5568 5563 5558 5553 5547 5541 5535 5528 5522 5515 5507 5499 5492 5484 5477 5469 5462 5455 5448 5442 5436 5430 5426 5422 5418
5615 5614 5612 5611 5609 5607 5605 5603 5600 5597 5594 5590 5587 5583 5579 5574 5570 5565 5560 5555 5550 5544 5538 5532 5525 5519 5512 5504 5496 5488 5480 5473 5465 5457 5450 5444 5437 5431 5425 5420 5416 5412 5409
5608 5607 5606 5604 5603 5601 5599 5596 5593 5590 5587 5583 5580 5576 5571 5567 5562 5557 5552 5547 5541 5535 5529 5522 5515 5508 5501 5493 5485 5477 5469 5461 5454 5446 5440 5433 5427 5421 5416 5411 5406 5403 5400
5602 5601 5599 5598 5596 5594 5591 5589 5586 5583 5580 5576 5572 5568 5564 5559 5554 5549 5544 5538 5532 5526 5519 5512 5505 5498 5490 5482 5474 5466 5458 5450 5443 5436 5429 5423 5417 5412 5406 5402 5398 5394 5391
5595 5594 5592 5590 5589 5586 5584 5581 5579 5576 5572 5569 5565 5561 5556 5551 5546 5541 5535 5529 5523 5516 5509 5502 5495 5487 5479 5471 5463 5455 5447 5440 5433 5426 5419 5413 5407 5402 5397 5393 5389 5385 5382
5587 5586 5585 5583 5581 5579 5576 5574 5571 5568 5564 5560 5557 5552 5548 5543 5538 5532 5526 5520 5514 5507 5500 5492 5485 5477 5469 5460 5452 5444 5437 5429 5422 5416 5409 5403 5397 5392 5388 5384 5380 5376 5373
5579 5578 5577 5575 5573 5571 5568 5566 5563 5559 5556 5552 5548 5544 5539 5534 5529 5523 5517 5511 5504 5497 5490 5482 5474 5467 5459 5450 5442 5434 5426 5419 5412 5406 5400 5394 5388 5383 5379 5375 5371 5367 5364
5571 5570 5568 5566 5565 5562 5560 5557 5554 5551 5547 5543 5539 5535 5530 5525 5519 5514 5508 5501 5494 5487 5480 5472 5464 5456 5448 5440 5432 5424 5417 5409 5402 5396 5390 5384 5379 5374 5370 5366 5362 5358 5355
5562 5561 5559 5558 5556 5554 5551 5548 5545 5542 5539 5535 5530 5526 5521 5516 5510 5504 5498 5491 5485 5478 5470 5463 5455 5447 5439 5430 5422 5414 5407 5400 5393 5386 5381 5375 5370 5366 5362 5358 5354 5350 5346
5553 5552 5551 5549 5547 5545 5542 5540 5537 5533 5530 5526 5521 5517 5512 5506 5501 5495 5488 5482 5475 5468 5460 5453 5445 5437 5429 5421 5413 5405 5397 5390 5383 5377 5372 5367 5362 5357 5353 5350 5346 5342 5338
5544 5543 5541 5540 5538 5535 5533 5530 5527 5524 5520 5516 5512 5507 5502 5497 5491 5485 5479 5472 5465 5458 5451 5443 5435 5428 5420 5412 5403 5396 5388 5381 5375 5369 5363 5359 5354 5350 5346 5342 5338 5334 5330